When you browse on this site, cookies collect data to enhance your experience and personalize the content and advertising you see.
Visit our Privacy Policy to learn more. By continuing to use the site, you agree to this use of cookies and data.
  • In Schweiz
  • Länderverzeichnis
  • Für 7 Tage
  • Wassertemperatur
  • Satellitenkarten
  • Wetterkarte
  • Widgets
  • user-avatar
    Anmelden

    Stündliche Wetter Yangliuqing

    Heute, 23 Mai, Donnerstag

    Zeit Temperatur Niederschläge Wind Luftdruck Luftfeuchtigkeit
    00:00 +28°C° 0 mm 2 m/S 750 mmHg 11%
    01:00 +27°C° 0 mm 2 m/S 750 mmHg 13%
    02:00 +26°C° 0 mm 1 m/S 750 mmHg 17%
    03:00 +25°C° 0 mm 2 m/S 750 mmHg 19%
    04:00 +24°C° 0 mm 3 m/S 751 mmHg 22%
    05:00 +24°C° 0 mm 3 m/S 751 mmHg 24%
    06:00 +25°C° 0 mm 3 m/S 751 mmHg 23%
    07:00 +27°C° 0 mm 3 m/S 752 mmHg 22%
    08:00 +30°C° 0 mm 3 m/S 752 mmHg 20%
    09:00 +32°C° 0 mm 2 m/S 752 mmHg 17%
    10:00 +36°C° 0 mm 2 m/S 752 mmHg 15%
    11:00 +37°C° 0 mm 1 m/S 752 mmHg 12%
    12:00 +39°C° 0 mm 2 m/S 752 mmHg 11%
    13:00 +41°C° 0 mm 2 m/S 751 mmHg 10%
    14:00 +39°C° 0 mm 3 m/S 751 mmHg 11%
    15:00 +40°C° 0 mm 3 m/S 751 mmHg 10%
    16:00 +42°C° 0 mm 3 m/S 751 mmHg 9%
    17:00 +42°C° 0 mm 4 m/S 751 mmHg 9%
    18:00 +40°C° 0 mm 4 m/S 751 mmHg 10%
    19:00 +37°C° 0 mm 3 m/S 750 mmHg 11%
    20:00 +35°C° 0 mm 3 m/S 750 mmHg 12%
    21:00 +34°C° 0 mm 3 m/S 751 mmHg 12%
    22:00 +33°C° 0 mm 3 m/S 751 mmHg 13%
    23:00 +31°C° 0 mm 3 m/S 751 mmHg 13%

    Morgen, 24 Mai, Freitag

    Zeit Temperatur Niederschläge Wind Luftdruck Luftfeuchtigkeit
    00:00 +32°C° 0 mm 4 m/S 751 mmHg 12%
    01:00 +32°C° 0 mm 4 m/S 751 mmHg 12%
    02:00 +32°C° 0 mm 4 m/S 751 mmHg 11%
    03:00 +32°C° 0 mm 4 m/S 751 mmHg 12%
    04:00 +32°C° 0 mm 4 m/S 751 mmHg 14%
    05:00 +30°C° 0 mm 4 m/S 751 mmHg 15%
    06:00 +33°C° 0 mm 6 m/S 751 mmHg 14%
    07:00 +34°C° 0 mm 7 m/S 752 mmHg 13%
    08:00 +37°C° 0 mm 8 m/S 752 mmHg 12%
    09:00 +38°C° 0 mm 8 m/S 752 mmHg 12%
    10:00 +39°C° 0 mm 8 m/S 752 mmHg 12%
    11:00 +40°C° 0 mm 8 m/S 752 mmHg 11%
    12:00 +40°C° 0 mm 8 m/S 752 mmHg 11%
    13:00 +40°C° 0 mm 9 m/S 752 mmHg 10%
    14:00 +42°C° 0 mm 9 m/S 751 mmHg 9%
    15:00 +41°C° 0 mm 8 m/S 751 mmHg 9%
    16:00 +40°C° 0 mm 8 m/S 751 mmHg 9%
    17:00 +40°C° 0 mm 7 m/S 750 mmHg 9%
    18:00 +38°C° 0 mm 6 m/S 751 mmHg 11%
    19:00 +36°C° 0 mm 4 m/S 751 mmHg 13%
    20:00 +34°C° 0 mm 3 m/S 751 mmHg 15%
    21:00 +34°C° 0 mm 3 m/S 751 mmHg 16%
    22:00 +33°C° 0 mm 3 m/S 751 mmHg 17%
    23:00 +33°C° 0 mm 4 m/S 751 mmHg 18%

    übermorgen, 25 Mai, Samstag

    Zeit Temperatur Niederschläge Wind Luftdruck Luftfeuchtigkeit
    00:00 +33°C° 0 mm 4 m/S 751 mmHg 18%
    01:00 +32°C° 0 mm 4 m/S 751 mmHg 18%
    02:00 +32°C° 0 mm 4 m/S 751 mmHg 18%
    03:00 +30°C° 0 mm 4 m/S 751 mmHg 20%
    04:00 +29°C° 0 mm 4 m/S 751 mmHg 22%
    05:00 +28°C° 0 mm 4 m/S 751 mmHg 24%
    06:00 +30°C° 0 mm 4 m/S 751 mmHg 24%
    07:00 +32°C° 0 mm 4 m/S 752 mmHg 24%
    08:00 +34°C° 0 mm 4 m/S 752 mmHg 24%
    09:00 +35°C° 0 mm 4 m/S 752 mmHg 24%
    10:00 +37°C° 0 mm 4 m/S 752 mmHg 23%
    11:00 +40°C° 0 mm 4 m/S 752 mmHg 22%
    12:00 +41°C° 0 mm 5 m/S 752 mmHg 20%
    13:00 +42°C° 0 mm 5 m/S 751 mmHg 19%
    14:00 +42°C° 0 mm 5 m/S 750 mmHg 18%
    15:00 +42°C° 0 mm 5 m/S 750 mmHg 19%
    16:00 +41°C° 0 mm 6 m/S 750 mmHg 19%
    17:00 +40°C° 0 mm 6 m/S 749 mmHg 20%
    18:00 +38°C° 0 mm 6 m/S 749 mmHg 24%
    19:00 +36°C° 0 mm 5 m/S 749 mmHg 27%
    20:00 +34°C° 0 mm 5 m/S 750 mmHg 31%
    21:00 +34°C° 0 mm 5 m/S 750 mmHg 31%
    22:00 +34°C° 0 mm 4 m/S 750 mmHg 32%
    23:00 +33°C° 0 mm 4 m/S 751 mmHg 33%

    26 Mai, Sonntag

    Zeit Temperatur Niederschläge Wind Luftdruck Luftfeuchtigkeit
    00:00 +33°C° 0.8 mm 3 m/S 751 mmHg 39%
    01:00 +31°C° 0.8 mm 3 m/S 751 mmHg 45%
    02:00 +30°C° 0.8 mm 3 m/S 751 mmHg 51%
    03:00 +29°C° 0.8 mm 2 m/S 751 mmHg 55%
    04:00 +28°C° 0.8 mm 2 m/S 751 mmHg 60%
    05:00 +27°C° 0.8 mm 2 m/S 751 mmHg 64%
    06:00 +26°C° 1.5 mm 3 m/S 752 mmHg 68%
    07:00 +26°C° 1.5 mm 5 m/S 753 mmHg 73%
    08:00 +24°C° 1.5 mm 6 m/S 753 mmHg 77%
    09:00 +24°C° 1.5 mm 7 m/S 754 mmHg 70%
    10:00 +24°C° 1.5 mm 7 m/S 754 mmHg 63%
    11:00 +24°C° 1.5 mm 8 m/S 754 mmHg 57%
    12:00 +26°C° 0.2 mm 7 m/S 753 mmHg 50%
    13:00 +27°C° 0.2 mm 7 m/S 753 mmHg 43%
    14:00 +28°C° 0.2 mm 6 m/S 753 mmHg 37%
    15:00 +28°C° 0 mm 6 m/S 752 mmHg 35%
    16:00 +29°C° 0 mm 6 m/S 752 mmHg 33%
    17:00 +29°C° 0 mm 5 m/S 752 mmHg 31%
    18:00 +27°C° 0 mm 5 m/S 753 mmHg 39%
    19:00 +26°C° 0 mm 4 m/S 754 mmHg 46%
    20:00 +23°C° 0 mm 4 m/S 755 mmHg 54%
    21:00 +23°C° 0.1 mm 5 m/S 756 mmHg 49%
    22:00 +23°C° 0.1 mm 6 m/S 757 mmHg 43%
    23:00 +22°C° 0.1 mm 7 m/S 758 mmHg 38%

    27 Mai, Montag

    Zeit Temperatur Niederschläge Wind Luftdruck Luftfeuchtigkeit
    00:00 +22°C° 0 mm 7 m/S 758 mmHg 38%
    01:00 +21°C° 0 mm 6 m/S 759 mmHg 37%
    02:00 +20°C° 0 mm 5 m/S 759 mmHg 36%
    03:00 +20°C° 0 mm 5 m/S 760 mmHg 35%
    04:00 +20°C° 0 mm 5 m/S 760 mmHg 34%
    05:00 +19°C° 0 mm 6 m/S 760 mmHg 32%
    06:00 +20°C° 0 mm 6 m/S 761 mmHg 30%
    07:00 +21°C° 0 mm 7 m/S 762 mmHg 27%
    08:00 +22°C° 0 mm 8 m/S 763 mmHg 24%
    09:00 +23°C° 0 mm 7 m/S 763 mmHg 22%
    10:00 +26°C° 0 mm 7 m/S 763 mmHg 20%
    11:00 +27°C° 0 mm 7 m/S 763 mmHg 18%
    12:00 +28°C° 0 mm 6 m/S 762 mmHg 17%
    13:00 +29°C° 0 mm 6 m/S 761 mmHg 16%
    14:00 +30°C° 0 mm 5 m/S 761 mmHg 15%
    15:00 +30°C° 0 mm 5 m/S 760 mmHg 14%
    16:00 +30°C° 0 mm 4 m/S 760 mmHg 14%
    17:00 +30°C° 0 mm 4 m/S 759 mmHg 14%
    18:00 +29°C° 0 mm 3 m/S 760 mmHg 15%
    19:00 +27°C° 0 mm 2 m/S 760 mmHg 17%
    20:00 +26°C° 0 mm 1 m/S 760 mmHg 18%
    21:00 +26°C° 0 mm 1 m/S 760 mmHg 19%
    22:00 +25°C° 0 mm 2 m/S 760 mmHg 20%
    23:00 +25°C° 0 mm 2 m/S 761 mmHg 20%

    28 Mai, Dienstag

    Zeit Temperatur Niederschläge Wind Luftdruck Luftfeuchtigkeit
    00:00 +24°C° 0 mm 3 m/S 761 mmHg 21%
    01:00 +24°C° 0 mm 3 m/S 760 mmHg 22%
    02:00 +22°C° 0 mm 4 m/S 760 mmHg 22%
    03:00 +22°C° 0 mm 4 m/S 760 mmHg 23%
    04:00 +21°C° 0 mm 4 m/S 760 mmHg 24%
    05:00 +21°C° 0 mm 4 m/S 760 mmHg 24%
    06:00 +22°C° 0 mm 4 m/S 760 mmHg 23%
    07:00 +23°C° 0 mm 4 m/S 760 mmHg 22%
    08:00 +26°C° 0 mm 4 m/S 760 mmHg 21%
    09:00 +28°C° 0 mm 4 m/S 760 mmHg 18%
    10:00 +30°C° 0 mm 4 m/S 759 mmHg 16%
    11:00 +33°C° 0 mm 3 m/S 759 mmHg 14%
    12:00 +34°C° 0 mm 4 m/S 758 mmHg 12%
    13:00 +35°C° 0 mm 4 m/S 758 mmHg 11%
    14:00 +36°C° 0 mm 4 m/S 757 mmHg 9%
    15:00 +36°C° 0 mm 4 m/S 757 mmHg 10%
    16:00 +35°C° 0 mm 3 m/S 756 mmHg 10%
    17:00 +35°C° 0 mm 3 m/S 756 mmHg 11%
    18:00 +34°C° 0 mm 3 m/S 756 mmHg 12%
    19:00 +31°C° 0 mm 3 m/S 756 mmHg 13%
    20:00 +30°C° 0 mm 3 m/S 756 mmHg 15%
    21:00 +29°C° 0 mm 3 m/S 756 mmHg 16%
    22:00 +29°C° 0 mm 4 m/S 756 mmHg 16%
    23:00 +28°C° 0 mm 5 m/S 756 mmHg 17%
    Mehr zeigen